Погода Бухта Амбарчик

Погода Бухта Амбарчик : погода сейчас, прогноз погоды и архив. Всё, что Вы хотите узнать о погоде Бухта Амбарчик!

Хотите узнать прогноз погоды Бухта Амбарчик? Тогда Вам сюда: Погода Бухта Амбарчик

Поиск расширенной информации на нашем сайте:

Другие новости

Новости СМИ2

Главная страница сайта

Новости сайта

03.07.2017

Напоминаем, что на нашем специализированном сайте Метеоцентр.Азия вы можете получить высокодетализированные автоматические прогнозы погоды по пунктам России, СНГ и мира в авиационном формате (включающие направление и скорость ветра, видимость, явления погоды, количество и форму облачности, нижнюю и верхнюю границу облачности).

Рекомендуем: Подробное описание как подтянуть рулевую рейку тут.

Погода Бухта Амбарчик - сегодня

Время (UTC), дата Ветер
(°,м/с) 
Видим.   Явления Облачность Т
(°С)
Тd
(°С)
f(%) Тe
(°С)
Pmin
(гПа)
dP
(гПа)
Po
(мм)
O2
(г/м3)
Тmin Tmax R s Состояние
почвы
21 11.12.17 230 (ЮЗ) 10-11{11}  20000 м  позёмок  9/6 300 м средняя, верхняя 
[St|Ac trans|Ci fib]
-25.5 -28 80 -36  1039.5  0.1  770  344  -26.6    0.0  27  неравномерный
сухой снег
100% 
00 12.12.17 230 (ЮЗ) 10-11{12}  20000 м  позёмок  9/5 300 м средняя, верхняя 
[St|Ac trans|Ci fib]
-25.1 -27.7 79 -36  1039.3  -0.2  777  347           
03 12.12.17 250 (З) 9-11{12}  20000 м  позёмок  9/5 300 м средняя, верхняя 
[St|Ac trans|Ci fib]
-23.5 -26 80 -33  1038.5  -0.8  776  344           
06 12.12.17 220 (ЮЗ) 5{11}  4000 м  слаб. снег  10/8 300 м средняя 
[Frnb|As op]
-22.3 -24.6 81 -29  1038.6  0.1  776  342           
09 12.12.17 240 (ЮЗ) 5{07}  4000 м  слаб. снег  10/8 300 м средняя 
[Frnb|As op]
-22.7 -25.1 81 -30  1038.7  0.1  777  343    -22.1  0.2     
12 12.12.17 260 (З) 5{06}  4000 м  слаб. снег  10/8 300 м средняя 
[Frnb|As op]
-22.4 -24.8 81 -29  1038.5  -0.2  776  343           
15 12.12.17 300 (СЗ) 5{07}  4000 м  слаб. снег  10/8 300 м средняя 
[Frnb|As op]
-20.8 -22.9 83 -27  1037.3  -1.1  776  340           
18 12.12.17 350 (С) 4{07}  4000 м  слаб. снег  10/8 300 м средняя 
[Frnb|As op]
-22.8 -25.2 81 -29  1036.7  -0.6  753  333           
21 12.12.17 050 (СВ) 2{05}  4000 м  слаб. снег  10/8 300 м средняя 
[Frnb|As op]
-24.6 -27.2 79 -28  1036.1  -0.7  775  345  -24.6    0.4  27  неравномерный
сухой снег
100% 
00 13.12.17 350 (С) 20000 м  {снег}  10/6 300 м средняя 
[St|Ac und]
-23.6 -26.1 80 -24  1034.8  -1.3  774  343  -24.7         
03 13.12.17 330 (СЗ) 2{03}  20000 м    10/8 300 м средняя 
[St|Ac und]
-22.4 -24.7 82 -25  1032.8  -1.9  772  341           
06 13.12.17 260 (З) 3{04}  4000 м  слаб. снег  10/8 300 м средняя 
[Frnb|As op]
-21.8 -24.1 82 -26  1031.7  -1.1  771  340           
09 13.12.17 040 (СВ) 5{06}  20000 м  позёмок{снег}  10/6 300 м средняя 
[St|Ac und]
-20.4 -22.6 82 -27  1030  -1.7  770  337    -19.8  0.2     
12 13.12.17 040 (СВ) 5{07}  20000 м  позёмок{снег}  10/8 300 м средняя 
[St|Ac und]
-20.3 -22.4 83 -27  1028.2  -1.8  769  336           
15 13.12.17 050 (СВ) 7{08}  20000 м  позёмок  10/6 300 м средняя 
[St|Ac und]
-20.5 -22.6 83 -29  1025.8  -2.4  767  336           
18 13.12.17 050 (СВ) 7{09}  20000 м  позёмок  10/8 300 м средняя 
[St|Ac und]
-19.9 -21.9 84 -28  1023.9  -1.9  766  334           
21 13.12.17 050 (СВ) 8{10}  20000 м  позёмок  10/8 300 м средняя 
[St|Ac und]
-18.6 -20.5 85 -27    -2  764  332  -20.8      27  неравномерный
сухой снег
100% 
00 14.12.17 060 (СВ) 7{09}  20000 м  позёмок  10/8 300 м средняя 
[St|Ac und]
-17.4 -19.2 86 -25  1019.1  -2.7  762  329           
03 14.12.17 060 (СВ) 6{09}  20000 м  позёмок  10/8 300 м средняя 
[St|Ac und]
-16.7 -18.5 86 -23  1016.6  -2.5  760  328           
06 14.12.17 050 (СВ) 9-11{11}  20000 м  позёмок  9/6 300 м средняя, верхняя 
[St|Ac trans|Ci fib]
-15.9 -17.5 87 -24  1014.4  -2.2  758  326           
09 14.12.17 070 (В) 10-12{13}  4000 м  слаб. снег  10/8 300 м средняя 
[Frnb|As op]
-13.3 -14.8 88 -21  1011.9  -2.5  757  322    -13.3  0.0     
12 14.12.17 080 (В) 15-17{20}  0050 м  сильная метель{снег}  ?/?  
-13.1 -14.4 90 -23  1010.7  -1.2  756  321           
15 14.12.17 080 (В) 15-16{20}  0200 м  сильная метель  ?/?  
-12.8 -14.1 90 -22  1010  -0.7  755  321           
18 14.12.17 070 (В) 11-13{18}  4000 м  слаб. снег  10/8 300 м средняя 
[Frnb|As op]
-13.3 -14.8 88 -22  1010.6  0.6  756  321           
21 14.12.17 080 (В) 9-11{14}  4000 м  слаб. снег  10/8 300 м средняя 
[Frnb|As op]
-13 -14.3 90 -21  1010.5  -0.1  756  321  -13.5    0.2  27  неравномерный
сухой снег
100% 
Время (UTC), дата Ветер
(°,м/с) 
Видим.   Явления Облачность Т
(°С)
Тd
(°С)
f(%) Тe
(°С)
Pmin
(гПа)
dP
(гПа)
Po
(мм)
O2
(г/м3)
Тmin Tmax R s Состояние
почвы

Для получения пояснительной информации подведите курсор к названию столбца.

ПОГОДА Бухта Амбарчик - архив

Всё, что Вы хотите узнать о погоде Бухта Амбарчик - удобно и подробно!

Выберите нужную дату (начиная с 1 января 2015* года) и нажмите кнопку "Найти".
Будут отображены архивные сводки погоды по пункту Бухта Амбарчик, начиная с указанной даты.


Отображать данные в формате CSV (для использования в таблицах Excel)


Внимание! Наш архив погоды предназначен исключительно для личного некоммерческого использования в познавательных целях. Если Вам необходимы официальные справки о состоянии погоды (для производственных, юридических, коммерческих и т.п. целей), обращайтесь в органы Росгидромета.

*Примечание: данная дата относится к архиву по метеостанциям СССР (Россия, СНГ, Балтия).
Архив по метеостанциям Зарубежной Европы и Азии (кроме Китая) хранится 10 дней, по другим регионам земного шара (Китай, Африка, Америка, Австралия, Океания) - 1 день.

Бухта Амбарчик - район местоположения метеостанции


Название, широта, долгота, высота метеостанции:
Бухта Амбарчик 69.6°ш. 162.3°д. 23 м над ур. моря [Российская Федерация]

Дополнительная информация

В oтличие oт бoльшинства пoгoдных сайтoв мы публикуем пoдрoбную метеoинфoрмацию в детальнoм прoфессиoнальнoм фoрмате.

Характеристики температуры и влажнoсти вoздуха измеряются на высoте 2 м в тени вдали oт зданий и деревьев.
Скoрoсть ветра измеряется на высoте 10 м (на урoвне рoста челoвека скoрoсть ветра ниже в 1.5-2 раза). Если метеoстанция нахoдится в гoрoде или в лесу, тo скoрoсть ветра занижена на 2-4 м/с пo сравнению с oткрытым местoм. Скoрoсть ветра над акватoриями крупных рек и oзёр, а также на вершинах хoлмoв на 2-5 м/с выше, чем в oбычных услoвиях.
Атмoсфернoе давление в разных тoчках местнoсти мoжет значительнo oтличаться oт давления на метеoстанции, в зависимoсти oт услoвий рельефа (при пoдъёме на 10 м давление пoнижается примернo на 1 мм рт.ст.).